contact:dominique.lefevre@mio.osupytheas.fr, maurice.libes@osupytheas.fr, didier.mallarino@osupytheas.fr
Project:EMSO http://www.emso-fr.org/EMSO-France
Depth: 2436.0 m
Title:EMSO Ligure Ouest : Data MII capteur MICROCAT
DateTime_Computer,Latitude,Longitude,Temperature,Conductivity,Pressure,DateTime_Instrument
DateTime_Computer,Latitude,Longitude,degC,S m-1,dbar,DateTime_Instrument
2020-11-23T00:01:51Z,42.805,6.029,13.2971,4.59978,2470.31,2020-11-23T02:02:48Z
2020-11-23T00:04:54Z,42.805,6.029,13.2972,4.59976,2470.32,2020-11-23T02:05:51Z
2020-11-23T00:07:57Z,42.805,6.029,13.2973,4.59976,2470.32,2020-11-23T02:08:54Z
2020-11-23T00:11:00Z,42.805,6.029,13.2974,4.59976,2470.31,2020-11-23T02:11:57Z
2020-11-23T00:14:03Z,42.805,6.029,13.2974,4.59976,2470.32,2020-11-23T02:15:00Z
2020-11-23T00:17:06Z,42.805,6.029,13.2971,4.59978,2470.31,2020-11-23T02:18:04Z
2020-11-23T00:20:10Z,42.805,6.029,13.2971,4.59977,2470.297,2020-11-23T02:21:07Z
2020-11-23T00:23:13Z,42.805,6.029,13.2974,4.59976,2470.297,2020-11-23T02:24:10Z
2020-11-23T00:26:16Z,42.805,6.029,13.2977,4.59976,2470.273,2020-11-23T02:27:13Z
2020-11-23T00:29:19Z,42.805,6.029,13.2973,4.59976,2470.297,2020-11-23T02:30:16Z
2020-11-23T00:32:22Z,42.805,6.029,13.2977,4.59977,2470.297,2020-11-23T02:33:19Z
2020-11-23T00:35:25Z,42.805,6.029,13.2974,4.59978,2470.31,2020-11-23T02:36:22Z
2020-11-23T00:38:28Z,42.805,6.029,13.2973,4.59976,2470.31,2020-11-23T02:39:25Z
2020-11-23T00:41:31Z,42.805,6.029,13.2971,4.59976,2470.297,2020-11-23T02:42:29Z
2020-11-23T00:44:35Z,42.805,6.029,13.2974,4.59976,2470.297,2020-11-23T02:45:32Z
2020-11-23T00:47:38Z,42.805,6.029,13.2974,4.59976,2470.31,2020-11-23T02:48:35Z
2020-11-23T00:50:41Z,42.805,6.029,13.2968,4.59978,2470.31,2020-11-23T02:51:38Z
2020-11-23T00:53:44Z,42.805,6.029,13.2971,4.59978,2470.283,2020-11-23T02:54:41Z
2020-11-23T00:56:47Z,42.805,6.029,13.2974,4.59976,2470.31,2020-11-23T02:57:44Z
2020-11-23T00:59:50Z,42.805,6.029,13.2971,4.59976,2470.297,2020-11-23T03:00:47Z
2020-11-23T01:02:53Z,42.805,6.029,13.2974,4.59976,2470.31,2020-11-23T03:03:50Z
2020-11-23T01:05:56Z,42.805,6.029,13.2974,4.59976,2470.32,2020-11-23T03:06:54Z
2020-11-23T01:08:59Z,42.805,6.029,13.2974,4.59977,2470.287,2020-11-23T03:09:57Z
2020-11-23T01:12:03Z,42.805,6.029,13.2969,4.59976,2470.31,2020-11-23T03:13:00Z
2020-11-23T01:15:06Z,42.805,6.029,13.2971,4.59976,2470.334,2020-11-23T03:16:03Z
2020-11-23T01:18:09Z,42.805,6.029,13.2974,4.59976,2470.273,2020-11-23T03:19:06Z
2020-11-23T01:21:12Z,42.805,6.029,13.2978,4.59976,2470.32,2020-11-23T03:22:09Z
2020-11-23T01:24:15Z,42.805,6.029,13.2973,4.59976,2470.297,2020-11-23T03:25:12Z
2020-11-23T01:27:18Z,42.805,6.029,13.2972,4.59978,2470.297,2020-11-23T03:28:15Z
2020-11-23T01:30:21Z,42.805,6.029,13.2974,4.59976,2470.31,2020-11-23T03:31:18Z
2020-11-23T01:33:24Z,42.805,6.029,13.2974,4.59978,2470.297,2020-11-23T03:34:22Z
2020-11-23T01:36:28Z,42.805,6.029,13.2971,4.59976,2470.273,2020-11-23T03:37:25Z
2020-11-23T01:39:31Z,42.805,6.029,13.2975,4.59978,2470.297,2020-11-23T03:40:28Z
2020-11-23T01:42:34Z,42.805,6.029,13.2973,4.59979,2470.334,2020-11-23T03:43:31Z
2020-11-23T01:45:37Z,42.805,6.029,13.2969,4.59977,2470.31,2020-11-23T03:46:34Z
2020-11-23T01:48:40Z,42.805,6.029,13.2974,4.59976,2470.297,2020-11-23T03:49:37Z
2020-11-23T01:51:43Z,42.805,6.029,13.2971,4.59976,2470.297,2020-11-23T03:52:40Z
2020-11-23T01:54:46Z,42.805,6.029,13.2972,4.59978,2470.297,2020-11-23T03:55:43Z
2020-11-23T01:57:49Z,42.805,6.029,13.2977,4.59978,2470.32,2020-11-23T03:58:47Z
2020-11-23T02:00:53Z,42.805,6.029,13.2973,4.59977,2470.273,2020-11-23T04:01:50Z
2020-11-23T02:03:56Z,42.805,6.029,13.2971,4.59976,2470.297,2020-11-23T04:04:53Z
2020-11-23T02:06:59Z,42.805,6.029,13.2971,4.59976,2470.32,2020-11-23T04:07:56Z
2020-11-23T02:10:02Z,42.805,6.029,13.2974,4.59976,2470.297,2020-11-23T04:10:59Z
2020-11-23T02:13:05Z,42.805,6.029,13.2975,4.59977,2470.334,2020-11-23T04:14:02Z
2020-11-23T02:16:08Z,42.805,6.029,13.2972,4.59976,2470.297,2020-11-23T04:17:05Z
2020-11-23T02:19:11Z,42.805,6.029,13.2968,4.59977,2470.31,2020-11-23T04:20:08Z
2020-11-23T02:22:14Z,42.805,6.029,13.2975,4.59976,2470.334,2020-11-23T04:23:12Z
2020-11-23T02:25:18Z,42.805,6.029,13.2975,4.59976,2470.31,2020-11-23T04:26:15Z
2020-11-23T02:28:21Z,42.805,6.029,13.2976,4.59976,2470.297,2020-11-23T04:29:18Z
2020-11-23T02:31:24Z,42.805,6.029,13.2973,4.59976,2470.297,2020-11-23T04:32:21Z
2020-11-23T02:34:27Z,42.805,6.029,13.2972,4.59976,2470.32,2020-11-23T04:35:24Z
2020-11-23T02:37:30Z,42.805,6.029,13.2972,4.59976,2470.334,2020-11-23T04:38:27Z
2020-11-23T02:40:33Z,42.805,6.029,13.2971,4.59976,2470.297,2020-11-23T04:41:30Z
2020-11-23T02:43:36Z,42.805,6.029,13.2974,4.59976,2470.31,2020-11-23T04:44:33Z
2020-11-23T02:46:39Z,42.805,6.029,13.2974,4.59977,2470.297,2020-11-23T04:47:37Z
2020-11-23T02:49:43Z,42.805,6.029,13.2975,4.59978,2470.297,2020-11-23T04:50:40Z
2020-11-23T02:52:46Z,42.805,6.029,13.2970,4.59976,2470.297,2020-11-23T04:53:43Z
2020-11-23T02:55:49Z,42.805,6.029,13.2974,4.59976,2470.297,2020-11-23T04:56:46Z
2020-11-23T02:58:52Z,42.805,6.029,13.2971,4.59976,2470.31,2020-11-23T04:59:49Z
2020-11-23T03:01:55Z,42.805,6.029,13.2969,4.59976,2470.287,2020-11-23T05:02:52Z
2020-11-23T03:04:58Z,42.805,6.029,13.2977,4.59976,2470.273,2020-11-23T05:05:55Z
2020-11-23T03:08:01Z,42.805,6.029,13.2974,4.59976,2470.32,2020-11-23T05:08:58Z
2020-11-23T03:11:04Z,42.805,6.029,13.2978,4.59977,2470.31,2020-11-23T05:12:02Z
2020-11-23T03:14:08Z,42.805,6.029,13.2969,4.59978,2470.31,2020-11-23T05:15:05Z
2020-11-23T03:17:11Z,42.805,6.029,13.2976,4.59978,2470.31,2020-11-23T05:18:08Z
2020-11-23T03:20:14Z,42.805,6.029,13.2973,4.59976,2470.31,2020-11-23T05:21:11Z
2020-11-23T03:23:17Z,42.805,6.029,13.2972,4.59976,2470.297,2020-11-23T05:24:14Z
2020-11-23T03:26:20Z,42.805,6.029,13.2972,4.59976,2470.297,2020-11-23T05:27:17Z
2020-11-23T03:29:23Z,42.805,6.029,13.2968,4.59976,2470.31,2020-11-23T05:30:20Z
2020-11-23T03:32:26Z,42.805,6.029,13.2974,4.59977,2470.297,2020-11-23T05:33:23Z
2020-11-23T03:35:29Z,42.805,6.029,13.2973,4.59978,2470.273,2020-11-23T05:36:27Z
2020-11-23T03:38:33Z,42.805,6.029,13.2975,4.59976,2470.297,2020-11-23T05:39:30Z
2020-11-23T03:41:36Z,42.805,6.029,13.2970,4.59976,2470.287,2020-11-23T05:42:33Z
2020-11-23T03:44:39Z,42.805,6.029,13.2968,4.59977,2470.273,2020-11-23T05:45:36Z
2020-11-23T03:47:42Z,42.805,6.029,13.2976,4.59977,2470.297,2020-11-23T05:48:39Z
2020-11-23T03:50:45Z,42.805,6.029,13.2974,4.59976,2470.283,2020-11-23T05:51:42Z
2020-11-23T03:53:48Z,42.805,6.029,13.2972,4.59978,2470.297,2020-11-23T05:54:45Z
2020-11-23T03:56:51Z,42.805,6.029,13.2972,4.59976,2470.297,2020-11-23T05:57:48Z
2020-11-23T03:59:54Z,42.805,6.029,13.2977,4.59976,2470.273,2020-11-23T06:00:52Z
2020-11-23T04:02:57Z,42.805,6.029,13.2974,4.59976,2470.287,2020-11-23T06:03:55Z
2020-11-23T04:06:01Z,42.805,6.029,13.2974,4.59976,2470.297,2020-11-23T06:06:58Z
2020-11-23T04:09:04Z,42.805,6.029,13.2971,4.59978,2470.287,2020-11-23T06:10:01Z
2020-11-23T04:12:07Z,42.805,6.029,13.2972,4.59979,2470.31,2020-11-23T06:13:04Z
2020-11-23T04:15:10Z,42.805,6.029,13.2967,4.59976,2470.273,2020-11-23T06:16:07Z
2020-11-23T04:18:13Z,42.805,6.029,13.2971,4.59976,2470.297,2020-11-23T06:19:10Z
2020-11-23T04:21:16Z,42.805,6.029,13.2974,4.59977,2470.334,2020-11-23T06:22:13Z
2020-11-23T04:24:19Z,42.805,6.029,13.2971,4.59977,2470.287,2020-11-23T06:25:16Z
2020-11-23T04:27:22Z,42.805,6.029,13.2972,4.59978,2470.287,2020-11-23T06:28:20Z
2020-11-23T04:30:26Z,42.805,6.029,13.2971,4.59978,2470.287,2020-11-23T06:31:23Z
2020-11-23T04:33:29Z,42.805,6.029,13.2972,4.59976,2470.31,2020-11-23T06:34:26Z
2020-11-23T04:36:32Z,42.805,6.029,13.2978,4.59977,2470.287,2020-11-23T06:37:29Z
2020-11-23T04:39:35Z,42.805,6.029,13.2974,4.59978,2470.287,2020-11-23T06:40:32Z
2020-11-23T04:42:38Z,42.805,6.029,13.2975,4.59978,2470.273,2020-11-23T06:43:35Z
2020-11-23T04:45:41Z,42.805,6.029,13.2971,4.59976,2470.31,2020-11-23T06:46:38Z
2020-11-23T04:48:44Z,42.805,6.029,13.2973,4.59979,2470.32,2020-11-23T06:49:41Z
2020-11-23T04:51:47Z,42.805,6.029,13.2973,4.59978,2470.273,2020-11-23T06:52:45Z
2020-11-23T04:54:51Z,42.805,6.029,13.2976,4.59979,2470.273,2020-11-23T06:55:48Z
2020-11-23T04:57:54Z,42.805,6.029,13.2974,4.59979,2470.287,2020-11-23T06:58:51Z
2020-11-23T05:00:57Z,42.805,6.029,13.2974,4.59979,2470.297,2020-11-23T07:01:54Z
2020-11-23T05:04:00Z,42.805,6.029,13.2973,4.59979,2470.31,2020-11-23T07:04:57Z
2020-11-23T05:07:03Z,42.805,6.029,13.2968,4.59976,2470.287,2020-11-23T07:08:00Z
2020-11-23T05:10:06Z,42.805,6.029,13.2978,4.59978,2470.297,2020-11-23T07:11:03Z
2020-11-23T05:13:09Z,42.805,6.029,13.2973,4.59978,2470.297,2020-11-23T07:14:06Z
2020-11-23T05:16:12Z,42.805,6.029,13.2969,4.59978,2470.25,2020-11-23T07:17:10Z
2020-11-23T05:19:16Z,42.805,6.029,13.2973,4.59978,2470.25,2020-11-23T07:20:13Z
2020-11-23T05:22:19Z,42.805,6.029,13.2968,4.59978,2470.287,2020-11-23T07:23:16Z
2020-11-23T05:25:22Z,42.805,6.029,13.2976,4.59979,2470.31,2020-11-23T07:26:19Z
2020-11-23T05:28:25Z,42.805,6.029,13.2970,4.59976,2470.287,2020-11-23T07:29:22Z
2020-11-23T05:31:28Z,42.805,6.029,13.2973,4.59977,2470.31,2020-11-23T07:32:25Z
2020-11-23T05:34:31Z,42.805,6.029,13.2974,4.59978,2470.25,2020-11-23T07:35:28Z
2020-11-23T05:37:34Z,42.805,6.029,13.2972,4.59979,2470.273,2020-11-23T07:38:31Z
2020-11-23T05:40:37Z,42.805,6.029,13.2975,4.59978,2470.273,2020-11-23T07:41:35Z
2020-11-23T05:43:41Z,42.805,6.029,13.2968,4.59978,2470.264,2020-11-23T07:44:38Z
2020-11-23T05:46:44Z,42.805,6.029,13.2978,4.59977,2470.31,2020-11-23T07:47:41Z
2020-11-23T05:49:47Z,42.805,6.029,13.2977,4.59978,2470.297,2020-11-23T07:50:44Z
2020-11-23T05:52:50Z,42.805,6.029,13.2975,4.59977,2470.273,2020-11-23T07:53:47Z
2020-11-23T05:55:53Z,42.805,6.029,13.2973,4.59978,2470.25,2020-11-23T07:56:50Z
2020-11-23T05:58:56Z,42.805,6.029,13.2974,4.59978,2470.273,2020-11-23T07:59:53Z
2020-11-23T06:01:59Z,42.805,6.029,13.2973,4.59978,2470.297,2020-11-23T08:02:56Z
2020-11-23T06:05:02Z,42.805,6.029,13.2977,4.59977,2470.31,2020-11-23T08:06:00Z
2020-11-23T06:08:05Z,42.805,6.029,13.2976,4.59978,2470.283,2020-11-23T08:09:03Z
2020-11-23T06:11:09Z,42.805,6.029,13.2974,4.59978,2470.273,2020-11-23T08:12:06Z
2020-11-23T06:14:12Z,42.805,6.029,13.2975,4.59979,2470.31,2020-11-23T08:15:09Z
2020-11-23T06:17:15Z,42.805,6.029,13.2972,4.59976,2470.31,2020-11-23T08:18:12Z
2020-11-23T06:20:18Z,42.805,6.029,13.2976,4.59978,2470.203,2020-11-23T08:21:15Z
2020-11-23T06:23:21Z,42.805,6.029,13.2972,4.59978,2470.236,2020-11-23T08:24:18Z
2020-11-23T06:26:24Z,42.805,6.029,13.2977,4.59978,2470.25,2020-11-23T08:27:21Z
2020-11-23T06:29:27Z,42.805,6.029,13.2973,4.59977,2470.287,2020-11-23T08:30:24Z
2020-11-23T06:32:30Z,42.805,6.029,13.2972,4.59979,2470.31,2020-11-23T08:33:28Z
2020-11-23T06:35:34Z,42.805,6.029,13.2979,4.59978,2470.297,2020-11-23T08:36:31Z
2020-11-23T06:38:37Z,42.805,6.029,13.2975,4.59978,2470.287,2020-11-23T08:39:34Z
2020-11-23T06:41:40Z,42.805,6.029,13.2974,4.59978,2470.287,2020-11-23T08:42:37Z
2020-11-23T06:44:43Z,42.805,6.029,13.2973,4.59978,2470.287,2020-11-23T08:45:40Z
2020-11-23T06:47:46Z,42.805,6.029,13.2974,4.59978,2470.25,2020-11-23T08:48:43Z
2020-11-23T06:50:49Z,42.805,6.029,13.2972,4.59977,2470.25,2020-11-23T08:51:46Z
2020-11-23T06:53:52Z,42.805,6.029,13.2973,4.59977,2470.287,2020-11-23T08:54:49Z
2020-11-23T06:56:55Z,42.805,6.029,13.2974,4.59978,2470.264,2020-11-23T08:57:53Z
2020-11-23T06:59:59Z,42.805,6.029,13.2975,4.59978,2470.287,2020-11-23T09:00:56Z
2020-11-23T07:03:02Z,42.805,6.029,13.2974,4.59978,2470.297,2020-11-23T09:03:59Z
2020-11-23T07:06:05Z,42.805,6.029,13.2974,4.59978,2470.287,2020-11-23T09:07:02Z
2020-11-23T07:09:08Z,42.805,6.029,13.2974,4.59978,2470.287,2020-11-23T09:10:05Z
2020-11-23T07:12:11Z,42.805,6.029,13.2975,4.59978,2470.287,2020-11-23T09:13:08Z
2020-11-23T07:15:14Z,42.805,6.029,13.2973,4.59979,2470.273,2020-11-23T09:16:11Z
2020-11-23T07:18:17Z,42.805,6.029,13.2977,4.59981,2470.264,2020-11-23T09:19:14Z
2020-11-23T07:21:20Z,42.805,6.029,13.2974,4.59978,2470.273,2020-11-23T09:22:18Z
2020-11-23T07:24:23Z,42.805,6.029,13.2974,4.59980,2470.25,2020-11-23T09:25:21Z
2020-11-23T07:27:27Z,42.805,6.029,13.2975,4.59978,2470.283,2020-11-23T09:28:24Z
2020-11-23T07:30:30Z,42.805,6.029,13.2974,4.59978,2470.25,2020-11-23T09:31:27Z
2020-11-23T07:33:33Z,42.805,6.029,13.2974,4.59978,2470.297,2020-11-23T09:34:30Z
2020-11-23T07:36:36Z,42.805,6.029,13.2976,4.59979,2470.273,2020-11-23T09:37:33Z
2020-11-23T07:39:39Z,42.805,6.029,13.2974,4.59978,2470.287,2020-11-23T09:40:36Z
2020-11-23T07:42:42Z,42.805,6.029,13.2972,4.59978,2470.264,2020-11-23T09:43:39Z
2020-11-23T07:45:45Z,42.805,6.029,13.2976,4.59977,2470.264,2020-11-23T09:46:43Z
2020-11-23T07:48:48Z,42.805,6.029,13.2973,4.59979,2470.297,2020-11-23T09:49:46Z
2020-11-23T07:51:52Z,42.805,6.029,13.2973,4.59978,2470.25,2020-11-23T09:52:49Z
2020-11-23T07:54:55Z,42.805,6.029,13.2970,4.59978,2470.24,2020-11-23T09:55:52Z
2020-11-23T07:57:58Z,42.805,6.029,13.2972,4.59978,2470.273,2020-11-23T09:58:55Z
2020-11-23T08:01:01Z,42.805,6.029,13.2973,4.59978,2470.25,2020-11-23T10:01:58Z
2020-11-23T08:04:04Z,42.805,6.029,13.2972,4.59977,2470.273,2020-11-23T10:05:01Z
2020-11-23T08:07:07Z,42.805,6.029,13.2974,4.59978,2470.273,2020-11-23T10:08:04Z
2020-11-23T08:10:10Z,42.805,6.029,13.2971,4.59978,2470.273,2020-11-23T10:11:07Z
2020-11-23T08:13:13Z,42.805,6.029,13.2975,4.59976,2470.287,2020-11-23T10:14:11Z
2020-11-23T08:16:17Z,42.805,6.029,13.2975,4.59978,2470.297,2020-11-23T10:17:14Z
2020-11-23T08:19:20Z,42.805,6.029,13.2973,4.59978,2470.297,2020-11-23T10:20:17Z
2020-11-23T08:22:23Z,42.805,6.029,13.2974,4.59978,2470.273,2020-11-23T10:23:20Z
2020-11-23T08:25:26Z,42.805,6.029,13.2977,4.59978,2470.25,2020-11-23T10:26:23Z
2020-11-23T08:28:29Z,42.805,6.029,13.2976,4.59979,2470.31,2020-11-23T10:29:26Z
2020-11-23T08:31:32Z,42.805,6.029,13.2972,4.59978,2470.264,2020-11-23T10:32:29Z
2020-11-23T08:34:35Z,42.805,6.029,13.2973,4.59978,2470.25,2020-11-23T10:35:33Z
2020-11-23T08:37:38Z,42.805,6.029,13.2975,4.59978,2470.25,2020-11-23T10:38:36Z
2020-11-23T08:40:42Z,42.805,6.029,13.2971,4.59977,2470.287,2020-11-23T10:41:39Z
2020-11-23T08:43:45Z,42.805,6.029,13.2974,4.59979,2470.31,2020-11-23T10:44:42Z
2020-11-23T08:46:48Z,42.805,6.029,13.2976,4.59978,2470.273,2020-11-23T10:47:45Z
2020-11-23T08:49:51Z,42.805,6.029,13.2971,4.59977,2470.25,2020-11-23T10:50:48Z
2020-11-23T08:52:54Z,42.805,6.029,13.2973,4.59978,2470.273,2020-11-23T10:53:51Z
2020-11-23T08:55:57Z,42.805,6.029,13.2974,4.59978,2470.25,2020-11-23T10:56:54Z
2020-11-23T08:59:00Z,42.805,6.029,13.2979,4.59977,2470.273,2020-11-23T10:59:58Z
2020-11-23T09:02:03Z,42.805,6.029,13.2975,4.59978,2470.273,2020-11-23T11:03:01Z
2020-11-23T09:05:07Z,42.805,6.029,13.2971,4.59976,2470.297,2020-11-23T11:06:04Z
2020-11-23T09:08:10Z,42.805,6.029,13.2974,4.59978,2470.25,2020-11-23T11:09:07Z
2020-11-23T09:11:13Z,42.805,6.029,13.2975,4.59978,2470.25,2020-11-23T11:12:10Z
2020-11-23T09:14:16Z,42.805,6.029,13.2974,4.59977,2470.273,2020-11-23T11:15:13Z
2020-11-23T09:17:19Z,42.805,6.029,13.2976,4.59977,2470.287,2020-11-23T11:18:16Z
2020-11-23T09:20:22Z,42.805,6.029,13.2973,4.59979,2470.273,2020-11-23T11:21:19Z
2020-11-23T09:23:25Z,42.805,6.029,13.2976,4.59977,2470.273,2020-11-23T11:24:23Z
2020-11-23T09:26:28Z,42.805,6.029,13.2973,4.59977,2470.287,2020-11-23T11:27:26Z
2020-11-23T09:29:32Z,42.805,6.029,13.2974,4.59977,2470.31,2020-11-23T11:30:29Z
2020-11-23T09:32:35Z,42.805,6.029,13.2976,4.59978,2470.287,2020-11-23T11:33:32Z
2020-11-23T09:35:38Z,42.805,6.029,13.2974,4.59977,2470.297,2020-11-23T11:36:35Z
2020-11-23T09:38:41Z,42.805,6.029,13.2977,4.59978,2470.25,2020-11-23T11:39:38Z
2020-11-23T09:41:44Z,42.805,6.029,13.2976,4.59977,2470.273,2020-11-23T11:42:41Z
2020-11-23T09:44:47Z,42.805,6.029,13.2974,4.59978,2470.273,2020-11-23T11:45:44Z
2020-11-23T09:47:50Z,42.805,6.029,13.2974,4.59978,2470.32,2020-11-23T11:48:48Z
2020-11-23T09:50:53Z,42.805,6.029,13.2974,4.59978,2470.25,2020-11-23T11:51:51Z
2020-11-23T09:53:57Z,42.805,6.029,13.2973,4.59978,2470.25,2020-11-23T11:54:54Z
2020-11-23T09:57:00Z,42.805,6.029,13.2976,4.59978,2470.273,2020-11-23T11:57:57Z
2020-11-23T10:00:03Z,42.805,6.029,13.2973,4.59979,2470.31,2020-11-23T12:01:00Z
2020-11-23T10:03:06Z,42.805,6.029,13.2976,4.59977,2470.297,2020-11-23T12:04:03Z
2020-11-23T10:06:09Z,42.805,6.029,13.2976,4.59976,2470.287,2020-11-23T12:07:06Z
2020-11-23T10:09:12Z,42.805,6.029,13.2974,4.59978,2470.31,2020-11-23T12:10:09Z
2020-11-23T10:12:15Z,42.805,6.029,13.2979,4.59977,2470.31,2020-11-23T12:13:13Z
2020-11-23T10:15:19Z,42.805,6.029,13.2972,4.59978,2470.273,2020-11-23T12:16:16Z
2020-11-23T10:18:22Z,42.805,6.029,13.2973,4.59979,2470.297,2020-11-23T12:19:19Z
2020-11-23T10:21:25Z,42.805,6.029,13.2976,4.59978,2470.273,2020-11-23T12:22:22Z
2020-11-23T10:24:28Z,42.805,6.029,13.2976,4.59976,2470.297,2020-11-23T12:25:25Z
2020-11-23T10:27:31Z,42.805,6.029,13.2976,4.59978,2470.297,2020-11-23T12:28:28Z
2020-11-23T10:30:34Z,42.805,6.029,13.2976,4.59977,2470.31,2020-11-23T12:31:31Z
2020-11-23T10:33:37Z,42.805,6.029,13.2971,4.59976,2470.334,2020-11-23T12:34:34Z
2020-11-23T10:36:40Z,42.805,6.029,13.2974,4.59978,2470.32,2020-11-23T12:37:38Z
2020-11-23T10:39:44Z,42.805,6.029,13.2977,4.59978,2470.273,2020-11-23T12:40:41Z
2020-11-23T10:42:47Z,42.805,6.029,13.2977,4.59979,2470.31,2020-11-23T12:43:44Z
2020-11-23T10:45:50Z,42.805,6.029,13.2976,4.59978,2470.297,2020-11-23T12:46:47Z
2020-11-23T10:48:53Z,42.805,6.029,13.2974,4.59978,2470.287,2020-11-23T12:49:50Z
2020-11-23T10:51:56Z,42.805,6.029,13.2971,4.59979,2470.32,2020-11-23T12:52:53Z
2020-11-23T10:54:59Z,42.805,6.029,13.2974,4.59977,2470.297,2020-11-23T12:55:56Z
2020-11-23T10:58:02Z,42.805,6.029,13.2975,4.59978,2470.31,2020-11-23T12:59:00Z
2020-11-23T11:01:05Z,42.805,6.029,13.2974,4.59978,2470.32,2020-11-23T13:02:03Z
2020-11-23T11:04:09Z,42.805,6.029,13.2974,4.59978,2470.31,2020-11-23T13:05:06Z
2020-11-23T11:07:12Z,42.805,6.029,13.2974,4.59977,2470.32,2020-11-23T13:08:09Z
2020-11-23T11:10:15Z,42.805,6.029,13.2972,4.59978,2470.334,2020-11-23T13:11:12Z
2020-11-23T11:13:18Z,42.805,6.029,13.2975,4.59977,2470.334,2020-11-23T13:14:15Z
2020-11-23T11:16:21Z,42.805,6.029,13.2977,4.59976,2470.334,2020-11-23T13:17:18Z
2020-11-23T11:19:24Z,42.805,6.029,13.2974,4.59978,2470.357,2020-11-23T13:20:21Z
2020-11-23T11:22:27Z,42.805,6.029,13.2976,4.59978,2470.32,2020-11-23T13:23:24Z
2020-11-23T11:25:30Z,42.805,6.029,13.2972,4.59977,2470.32,2020-11-23T13:26:28Z
2020-11-23T11:28:34Z,42.805,6.029,13.2976,4.59977,2470.297,2020-11-23T13:29:31Z
2020-11-23T11:31:37Z,42.805,6.029,13.2976,4.59978,2470.297,2020-11-23T13:32:34Z
2020-11-23T11:34:40Z,42.805,6.029,13.2977,4.59977,2470.32,2020-11-23T13:35:37Z
2020-11-23T11:37:43Z,42.805,6.029,13.2977,4.59978,2470.334,2020-11-23T13:38:40Z
2020-11-23T11:40:46Z,42.805,6.029,13.2973,4.59977,2470.297,2020-11-23T13:41:43Z
2020-11-23T11:43:49Z,42.805,6.029,13.2975,4.59978,2470.31,2020-11-23T13:44:46Z
2020-11-23T11:46:52Z,42.805,6.029,13.2971,4.59977,2470.297,2020-11-23T13:47:50Z
2020-11-23T11:49:56Z,42.805,6.029,13.2974,4.59976,2470.297,2020-11-23T13:50:53Z
2020-11-23T11:52:59Z,42.805,6.029,13.2974,4.59977,2470.334,2020-11-23T13:53:56Z
2020-11-23T11:56:02Z,42.805,6.029,13.2972,4.59976,2470.297,2020-11-23T13:56:59Z
2020-11-23T11:59:05Z,42.805,6.029,13.2976,4.59978,2470.32,2020-11-23T14:00:02Z
2020-11-23T12:02:08Z,42.805,6.029,13.2974,4.59978,2470.32,2020-11-23T14:03:05Z
2020-11-23T12:05:11Z,42.805,6.029,13.2978,4.59976,2470.33,2020-11-23T14:06:08Z
2020-11-23T12:08:14Z,42.805,6.029,13.2974,4.59977,2470.357,2020-11-23T14:09:11Z
2020-11-23T12:11:17Z,42.805,6.029,13.2978,4.59977,2470.32,2020-11-23T14:12:15Z
2020-11-23T12:14:20Z,42.805,6.029,13.2971,4.59977,2470.32,2020-11-23T14:15:18Z
2020-11-23T12:17:24Z,42.805,6.029,13.2971,4.59976,2470.343,2020-11-23T14:18:21Z
2020-11-23T12:20:27Z,42.805,6.029,13.2976,4.59976,2470.343,2020-11-23T14:21:24Z
2020-11-23T12:23:30Z,42.805,6.029,13.2978,4.59976,2470.32,2020-11-23T14:24:27Z
2020-11-23T12:26:33Z,42.805,6.029,13.2973,4.59978,2470.357,2020-11-23T14:27:30Z
2020-11-23T12:29:36Z,42.805,6.029,13.2979,4.59978,2470.33,2020-11-23T14:30:33Z
2020-11-23T12:32:39Z,42.805,6.029,13.2972,4.59976,2470.334,2020-11-23T14:33:36Z
2020-11-23T12:35:42Z,42.805,6.029,13.2971,4.59978,2470.343,2020-11-23T14:36:40Z
2020-11-23T12:38:46Z,42.805,6.029,13.2974,4.59978,2470.334,2020-11-23T14:39:43Z
2020-11-23T12:41:49Z,42.805,6.029,13.2971,4.59976,2470.357,2020-11-23T14:42:46Z
2020-11-23T12:44:52Z,42.805,6.029,13.2976,4.59978,2470.334,2020-11-23T14:45:49Z
2020-11-23T12:47:55Z,42.805,6.029,13.2977,4.59978,2470.357,2020-11-23T14:48:52Z
2020-11-23T12:50:58Z,42.805,6.029,13.2974,4.59977,2470.343,2020-11-23T14:51:55Z
2020-11-23T12:54:01Z,42.805,6.029,13.2979,4.59977,2470.357,2020-11-23T14:54:58Z
2020-11-23T12:57:04Z,42.805,6.029,13.2976,4.59976,2470.343,2020-11-23T14:58:01Z
2020-11-23T13:00:07Z,42.805,6.029,13.2971,4.59978,2470.366,2020-11-23T15:01:05Z
2020-11-23T13:03:11Z,42.805,6.029,13.2971,4.59976,2470.343,2020-11-23T15:04:08Z
2020-11-23T13:06:14Z,42.805,6.029,13.2971,4.59976,2470.357,2020-11-23T15:07:11Z
2020-11-23T13:09:17Z,42.805,6.029,13.2972,4.59976,2470.32,2020-11-23T15:10:14Z
2020-11-23T13:12:20Z,42.805,6.029,13.2978,4.59976,2470.366,2020-11-23T15:13:17Z
2020-11-23T13:15:23Z,42.805,6.029,13.2973,4.59977,2470.32,2020-11-23T15:16:20Z
2020-11-23T13:18:26Z,42.805,6.029,13.2974,4.59977,2470.343,2020-11-23T15:19:23Z
2020-11-23T13:21:29Z,42.805,6.029,13.2979,4.59978,2470.366,2020-11-23T15:22:26Z
2020-11-23T13:24:32Z,42.805,6.029,13.2969,4.59976,2470.357,2020-11-23T15:25:30Z
2020-11-23T13:27:36Z,42.805,6.029,13.2974,4.59978,2470.366,2020-11-23T15:28:33Z
2020-11-23T13:30:39Z,42.805,6.029,13.2974,4.59977,2470.38,2020-11-23T15:31:36Z
2020-11-23T13:33:42Z,42.805,6.029,13.2971,4.59976,2470.357,2020-11-23T15:34:39Z
2020-11-23T13:36:45Z,42.805,6.029,13.2969,4.59977,2470.366,2020-11-23T15:37:42Z
2020-11-23T13:39:48Z,42.805,6.029,13.2974,4.59976,2470.343,2020-11-23T15:40:45Z
2020-11-23T13:42:51Z,42.805,6.029,13.2973,4.59976,2470.366,2020-11-23T15:43:48Z
2020-11-23T13:45:54Z,42.805,6.029,13.2974,4.59977,2470.343,2020-11-23T15:46:52Z
2020-11-23T13:48:57Z,42.805,6.029,13.2972,4.59978,2470.357,2020-11-23T15:49:55Z
2020-11-23T13:52:01Z,42.805,6.029,13.2974,4.59976,2470.357,2020-11-23T15:52:58Z
2020-11-23T13:55:04Z,42.805,6.029,13.2974,4.59976,2470.357,2020-11-23T15:56:01Z
2020-11-23T13:58:07Z,42.805,6.029,13.2974,4.59976,2470.366,2020-11-23T15:59:04Z
2020-11-23T14:01:10Z,42.805,6.029,13.2974,4.59977,2470.343,2020-11-23T16:02:07Z
2020-11-23T14:04:13Z,42.805,6.029,13.2971,4.59978,2470.38,2020-11-23T16:05:10Z
2020-11-23T14:07:16Z,42.805,6.029,13.2976,4.59977,2470.38,2020-11-23T16:08:13Z
2020-11-23T14:10:19Z,42.805,6.029,13.2970,4.59976,2470.366,2020-11-23T16:11:17Z
2020-11-23T14:13:22Z,42.805,6.029,13.2974,4.59977,2470.357,2020-11-23T16:14:20Z
2020-11-23T14:16:26Z,42.805,6.029,13.2977,4.59978,2470.343,2020-11-23T16:17:23Z
2020-11-23T14:19:29Z,42.805,6.029,13.2975,4.59976,2470.357,2020-11-23T16:20:26Z
2020-11-23T14:22:32Z,42.805,6.029,13.2974,4.59977,2470.366,2020-11-23T16:23:29Z
2020-11-23T14:25:35Z,42.805,6.029,13.2976,4.59977,2470.357,2020-11-23T16:26:32Z
2020-11-23T14:28:38Z,42.805,6.029,13.2974,4.59976,2470.343,2020-11-23T16:29:35Z
2020-11-23T14:31:41Z,42.805,6.029,13.2974,4.59977,2470.38,2020-11-23T16:32:38Z
2020-11-23T14:34:44Z,42.805,6.029,13.2972,4.59977,2470.357,2020-11-23T16:35:42Z
2020-11-23T14:37:48Z,42.805,6.029,13.2974,4.59976,2470.357,2020-11-23T16:38:45Z
2020-11-23T14:40:51Z,42.805,6.029,13.2974,4.59976,2470.357,2020-11-23T16:41:48Z
2020-11-23T14:43:54Z,42.805,6.029,13.2976,4.59978,2470.343,2020-11-23T16:44:51Z
2020-11-23T14:46:57Z,42.805,6.029,13.2974,4.59978,2470.366,2020-11-23T16:47:54Z
2020-11-23T14:50:00Z,42.805,6.029,13.2974,4.59976,2470.357,2020-11-23T16:50:57Z
2020-11-23T14:53:03Z,42.805,6.029,13.2973,4.59977,2470.343,2020-11-23T16:54:00Z
2020-11-23T14:56:06Z,42.805,6.029,13.2975,4.59978,2470.366,2020-11-23T16:57:03Z
2020-11-23T14:59:09Z,42.805,6.029,13.2976,4.59976,2470.343,2020-11-23T17:00:07Z
2020-11-23T15:02:13Z,42.805,6.029,13.2973,4.59976,2470.38,2020-11-23T17:03:10Z